Hourly Data Report for October 23, 2013

All times are specified in Local Standard Time (LST). Add 1 hour to adjust for Daylight Saving Time where and when it is observed.

ARVIAT A
NUNAVUT

61°05'38.000" N
94°04'18.000" W
10.40 m
2300427
71174
YEK

Download Data

Hourly Data (October 2013)
Hourly Data Report for October 23, 2013
Temp Definition
°C
Dew Point Temp Definition
°C
Rel Hum Definition
%
Wind Dir Definition
10's deg

Wind Spd Definition
km/h
Visibility Definition
km
Stn Press Definition
kPa
Hmdx Definition


Wind Chill Definition


Weather Definition


TIME
00:00 Legend Double Dagger -5.4 -5.8 97 33 28 16.1 101.24   -13 LegendNANA
01:00 Legend Double Dagger -5.2 -5.6 97 33 30 16.1 101.22   -13 LegendNANA
02:00 Legend Double Dagger -5.2 -5.6 97 33 32 16.1 101.20   -13 LegendNANA
03:00 Legend Double Dagger -5.4 -5.7 98 33 24 16.1 101.20   -13 LegendNANA
04:00 Legend Double Dagger -5.2 -5.6 97 33 28 16.1 101.20   -13 LegendNANA
05:00 Legend Double Dagger -5.1 -5.4 98 32 24 16.1 101.19   -12 LegendNANA
06:00 Legend Double Dagger -4.9 -5.3 97 33 22 16.1 101.19   -12 LegendNANA
07:00 Legend Double Dagger -4.7 -5.0 98 33 26 16.1 101.18   -12 LegendNANA
08:00 Legend Double Dagger -4.9 -5.2 98 32 22 8.1 101.18   -12 LegendNANA
09:00 Legend Double Dagger -4.8 -5.1 98 32 22 16.1 101.19   -12 LegendNANA
10:00 Legend Double Dagger -4.1 -4.4 98 33 22 16.1 101.19   -11 LegendNANA
11:00 Legend Double Dagger -3.6 -3.9 98 34 24 16.1 101.20   -10 LegendNANA
12:00 Legend Double Dagger -3.1 -3.5 97 34 22 16.1 101.22   -9 LegendNANA
13:00 Legend Double Dagger -2.9 -3.3 97 34 26 16.1 101.24   -10 LegendNANA
14:00 Legend Double Dagger -2.6 -3.2 96 35 26 16.1 101.27   -9 LegendNANA
15:00 Legend Double Dagger -2.5 -3.1 96 35 26 16.1 101.30   -9 LegendNANA
16:00 Legend Double Dagger -2.6 -3.2 96 35 26 16.1 101.34   -9 LegendNANA
17:00 Legend Double Dagger -2.7 -3.3 96 35 28 16.1 101.37   -10 LegendNANA
18:00 Legend Double Dagger -3.0 -3.6 96 35 28 16.1 101.43   -10 LegendNANA
19:00 Legend Double Dagger -3.1 -3.7 96 35 30 16.1 101.46   -11 LegendNANA
20:00 Legend Double Dagger -3.8 -4.4 96 34 32 16.1 101.48   -12 LegendNANA
21:00 Legend Double Dagger -3.7 -4.1 97 34 28 16.1 101.49   -11 LegendNANA
22:00 Legend Double Dagger -3.1 -3.5 97 34 30 16.1 101.51   -11 LegendNANA
23:00 Legend Double Dagger -2.8 -3.4 96 35 28 16.1 101.52   -10 LegendNANA

Notes on Data Quality.

Legend

  • E = Estimated
  • M = Missing
  • NA = Not Available
  • ‡ = Partner data that is not subject to review by the National Climate Archives
Date modified: